Cosmos 1842 - Orbit

View from above orbital plane
View from above orbital plane
View from above satellite
View from above satellite

Ground track
Ground track

The orbit data is extracted from the following two-line orbital elements,

1 17911U 87038A   13142.49179523  .00002203  00000-0  15782-3 0  2037
2 17911 082.4909 203.8667 0011686 268.5087 091.4801 15.03880520417707
Epoch (UTC): 22 May 2013 11:48:11
Eccentricity: 0.0011686
inclination: 82.4909°
perigee height: 547 km
apogee height: 563 km
right ascension of ascending node: 203.8667°
argument of perigee: 268.5087°
revolutions per day: 15.03880520
mean anomaly at epoch: 91.4801°
orbit number at epoch: 41770

The dashed part of the orbit path shows where the satellite is in the earth's shadow,  

Developed and maintained by Chris Peat, Heavens-Above GmbH. Please read the updated FAQ before sending e-mail. Imprint. DLR